• MPC Preparation (Info)

  • MPEC 2016-O246: 2014 WO510

    The following Minor Planet Electronic Circular may be linked-to from your own Web pages, but must not otherwise be redistributed electronically.

    A form allowing access to any MPEC is at the bottom of this page.


    Read MPEC 2016-O245 Read MPEC 2016-O247


    M.P.E.C. 2016-O246                               Issued 2016 July 17, 19:31 UT
    
         The Minor Planet Electronic Circulars contain information on unusual
             minor planets and routine data on comets.  They are published
        on behalf of Division F of the International Astronomical Union by the
              Minor Planet Center, Smithsonian Astrophysical Observatory,
                              Cambridge, MA 02138, U.S.A.
    
                 Prepared using the Tamkin Foundation Computer Network
    
                                  MPC@CFA.HARVARD.EDU
                URL https://www.minorplanetcenter.net/    ISSN 1523-6714
    
                                      2014 WO510
    
    Observations:
         K14Wp0O  C2010 11 09.52717 03 46 49.821+18 30 39.98         22.2 wLEO246F51
         K14Wp0O  C2010 11 09.54531 03 46 49.702+18 30 39.59         22.6 wLEO246F51
         K14Wp0O  C2010 11 09.56360 03 46 49.590+18 30 39.37         22.2 wLEO246F51
         K14Wp0O  C2010 11 09.58174 03 46 49.507+18 30 39.11         22.1 wLEO246F51
         K14Wp0O  C2012 12 10.26975 04 00 16.470+19 42 02.06         21.9 wLEO246F51
         K14Wp0O  C2012 12 10.28521 04 00 16.332+19 42 01.70         22.4 wLEO246F51
         K14Wp0O  C2012 12 10.31083 04 00 16.176+19 42 01.26         22.3 wLEO246F51
         K14Wp0O  C2012 12 10.32637 04 00 16.073+19 42 00.89         22.4 wLEO246F51
         K14Wp0O  C2013 11 09.51954 04 12 03.629+20 27 43.93         22.2 wLEO246F51
         K14Wp0O  C2013 11 09.53462 04 12 03.529+20 27 43.65         22.2 wLEO246F51
         K14Wp0O  C2013 11 09.54973 04 12 03.431+20 27 43.48         21.9 wLEO246F51
         K14Wp0O  C2013 11 09.56492 04 12 03.359+20 27 43.42         22.2 wLEO246F51
         K14Wp0O* C2014 11 27.50384 04 18 50.717+21 00 22.65         22.3 wLEO246F51
         K14Wp0O  C2014 11 27.51712 04 18 50.630+21 00 22.56         21.8 wLEO246F51
         K14Wp0O  C2014 11 27.53036 04 18 50.547+21 00 22.47         22.2 wLEO246F51
         K14Wp0O  C2014 11 27.54360 04 18 50.458+21 00 22.02         22.2 wLEO246F51
         K14Wp0O  C2014 12 13.28681 04 17 09.417+20 56 56.58         22.1 wLEO246F51
         K14Wp0O  C2014 12 13.29943 04 17 09.323+20 56 56.40         22.1 wLEO246F51
         K14Wp0O  C2014 12 13.31207 04 17 09.254+20 56 56.26         22.2 wLEO246F51
         K14Wp0O  C2014 12 13.32478 04 17 09.174+20 56 56.21         22.5 wLEO246F51
         K14Wp0O  C2015 01 22.34105 04 13 54.373+20 50 45.73         22.2 wLEO246F51
         K14Wp0O  C2015 01 22.35504 04 13 54.326+20 50 45.72         22.3 wLEO246F51
         K14Wp0O  C2015 01 22.36898 04 13 54.286+20 50 45.78         22.4 wLEO246F51
         K14Wp0O  C2015 01 22.38288 04 13 54.246+20 50 45.59         22.3 wLEO246F51
         K14Wp0O  C2015 01 24.32362 04 13 48.723+20 50 37.58         22.2 wLEO246F51
         K14Wp0O  C2015 01 24.33813 04 13 48.666+20 50 37.44         22.2 wLEO246F51
         K14Wp0O  C2015 01 24.35259 04 13 48.639+20 50 37.39         22.1 wLEO246F51
         K14Wp0O  C2015 01 24.36713 04 13 48.603+20 50 37.26         22.0 wLEO246F51
    
    Observer details:
    F51 Pan-STARRS 1, Haleakala.  Observers B. Gibson, T. Goggia, N. Primak,
        A. Schultz, M. Willman.  Measurers K. Chambers, S. Chastel, Y.-T. Chen,
        L. Denneau, H. Flewelling, M. Holman, M. Huber, R. Jedicke, M. Lackner,
        E. Lilly, H.-W. Lin, E. Magnier, M. Micheli, M. Payne, P. Veres,
        R. Wainscoat, C. Waters, R. Weryk.  1.8-m Ritchey-Chretien + CCD.
    
    Orbital elements:
    2014 WO510
    Epoch 2016 July 31.0 TT = JDT 2457600.5                 MPC
    M 340.63189              (2000.0)            P               Q
    n   0.00399737     Peri.   28.37091     -0.13711318     -0.98443698
    a  39.3205603      Node    69.68765     +0.88522348     -0.17157461
    e   0.1829895      Incl.    6.73143     +0.44449901     +0.03802615
    P 247              H    6.9           G   0.15           U   2
    Residuals in seconds of arc
    101109 F51  0.0   0.1-    131109 F51  0.2-  0.0     150122 F51  0.0   0.1-
    101109 F51  0.1-  0.1-    131109 F51  0.1+  0.2+    150122 F51  0.0   0.0
    101109 F51  0.1-  0.0     141127 F51  0.0   0.1-    150122 F51  0.0   0.1+
    101109 F51  0.3+  0.0     141127 F51  0.0   0.0     150122 F51  0.0   0.0
    121210 F51  0.5+  0.3+    141127 F51  0.0   0.1+    150124 F51  0.0   0.1+
    121210 F51  0.1-  0.1+    141127 F51  0.0   0.2-    150124 F51  0.2-  0.0
    121210 F51  0.1-  0.0     141213 F51  0.1+  0.0     150124 F51  0.0   0.0
    121210 F51  0.2-  0.1-    141213 F51  0.1-  0.1-    150124 F51  0.1+  0.1-
    131109 F51  0.0   0.0     141213 F51  0.1+  0.0
    131109 F51  0.1-  0.0     141213 F51  0.1+  0.1+
    
    Ephemeris:
    2014 WO510               a,e,i = 39.32, 0.18, 7                  q = 32.125
    Date    TT    R. A. (2000) Decl.     Delta      r     Elong.  Phase     V
    2016 06 17    04 33 58.3 +21 57 41  33.7117 32.7357    15.9     0.5    22.2
    ...
    2016 07 02    04 36 00.9 +22 02 24  33.6112 32.7321    29.7     0.9    22.2
    ...
    2016 07 10    04 37 01.3 +22 04 44  33.5351 32.7301    37.1     1.1    22.3
    ...
    2016 07 16    04 37 43.7 +22 06 22  33.4688 32.7287    42.7     1.2    22.3
    2016 07 17    04 37 50.5 +22 06 37  33.4570 32.7284    43.6     1.2    22.3
    2016 07 18    04 37 57.2 +22 06 53  33.4450 32.7282    44.5     1.2    22.3
    ...
    2016 07 24    04 38 35.7 +22 08 22  33.3691 32.7268    50.1     1.4    22.3
    ...
    2016 08 01    04 39 21.9 +22 10 11  33.2580 32.7248    57.6     1.5    22.3
    ...
    2016 08 16    04 40 30.4 +22 12 58  33.0254 32.7212    71.7     1.7    22.3
    
    A. U. Tomatic                (C) Copyright 2016 MPC           M.P.E.C. 2016-O246
    

    Read MPEC 2016-O245 Read MPEC 2016-O247


    MPEC number:

    Enter an MPEC number in one of the following forms:

    • 1997-B01 (the full form)
    • J97B01 (the packed version of the full form)
    • B01 (the abbreviated form)